Tracking 29932 objects as of 3-Dec-2024
HD Live streaming from Space Station
objects crossing your sky now

STARLINK-30262

Track STARLINK-30262 now!
10-day predictions
STARLINK-30262 is classified as:


NORAD ID: 57535
Int'l Code: 2023-115Q
Perigee: 449.8 km
Apogee: 452.6 km
Inclination: 43.0 °
Period: 93.5 minutes
Semi major axis: 6822 km
RCS: Unknown
Launch date: August 8, 2023
Source: United States (US)
Launch site: AIR FORCE WESTERN TEST RANGE (AFWTR)
Your satellite tracking list
Your tracking list is empty




NASA's NSSDC Master Catalog

Two Line Element Set (TLE):
1 57535U 23115Q   24338.57915887  .00000596  00000-0  21549-4 0  9992
2 57535  43.0066 285.8913 0002118 254.3466 105.7157 15.40693754 73701
Source of the keplerian elements: AFSPC